• Processing (Info)

  • MPEC 2014-L30 : 2014 LN14

    The following Minor Planet Electronic Circular may be linked-to from your own Web pages, but must not otherwise be redistributed electronically.

    A form allowing access to any MPEC is at the bottom of this page.


    Read MPEC 2014-L29 Read MPEC 2014-L31


    M.P.E.C. 2014-L30                                Issued 2014 June 6, 02:12 UT
    
         The Minor Planet Electronic Circulars contain information on unusual
             minor planets and routine data on comets.  They are published
       on behalf of Commission 20 of the International Astronomical Union by the
              Minor Planet Center, Smithsonian Astrophysical Observatory,
                              Cambridge, MA 02138, U.S.A.
    
                 Prepared using the Tamkin Foundation Computer Network
    
                                  MPC@CFA.HARVARD.EDU
                URL http://www.minorplanetcenter.net/    ISSN 1523-6714
    
                                       2014 LN14
    
    Observations:
         K14L14N* C2014 06 02.31640 14 24 58.953-28 08 05.35         20.3 wLEL030F51
         K14L14N  C2014 06 02.32743 14 24 58.137-28 08 02.24         20.3 wLEL030F51
         K14L14N  C2014 06 02.33846 14 24 57.314-28 07 59.04         20.3 wLEL030F51
         K14L14N  C2014 06 02.34950 14 24 56.502-28 07 55.71         20.2 wLEL030F51
         K14L14N |C2014 06 03.02595 14 24 11.89 -28 04 24.8          20.5 VuEL030807
         K14L14N |C2014 06 03.03057 14 24 11.55 -28 04 23.6          20.4 VuEL030807
         K14L14N |C2014 06 03.03520 14 24 11.22 -28 04 22.1          20.6 VuEL030807
         K14L14N _C2014 06 03.39927614 23 46.667-28 02 44.78         20.0 RtEL030568
         K14L14N _C2014 06 03.40053014 23 46.577-28 02 44.32               tEL030568
         K14L14N |C2014 06 06.05896 14 21 04.66 -27 49 07.5          20.0 VuEL030807
         K14L14N |C2014 06 06.06357 14 21 04.38 -27 49 06.3          19.6 VuEL030807
         K14L14N |C2014 06 06.06817 14 21 04.08 -27 49 05.3          19.9 VuEL030807
    
    Observer details:
    568 Mauna Kea.  Observers R. J. Wainscoat, P. Forshay.  Measurers M. Micheli,
        R. J. Wainscoat.  3.6-m Canada-France-Hawaii Telescope + CCD.
    807 Cerro Tololo.  Observers T. Linder, R. Holmes.  Measurers T. Linder,
        R. Holmes, C. Smith.  0.41-m f/11 Ritchey-Chretien + CCD.
    F51 Pan-STARRS 1, Haleakala.  Observers N. Primak, A. Schultz, T. Goggia,
        M. Willman.  Measurer PS1 Science Consortium.  1.8-m Ritchey-Chretien
        + CCD.
    
    Orbital elements:
    2014 LN14                                                Earth MOID = 0.2265 AU
    Epoch 2014 May 23.0 TT = JDT 2456800.5                  MPC
    M 324.83787              (2000.0)            P               Q
    n   0.31164621     Peri.  336.26863     +0.70404876     +0.70939866
    a   2.1545743      Node   338.43683     -0.63648234     +0.60992461
    e   0.4255511      Incl.    5.10357     -0.31496917     +0.35319331
    P   3.16           H   19.3           G   0.15           U   7
    Residuals in seconds of arc
    140602 F51  0.0   0.0     140603 807  0.1+  0.1-    140603 568  0.1-  0.1+
    140602 F51  0.0   0.0     140603 807  0.0   0.2-    140606 807  0.1-  0.3+
    140602 F51  0.1-  0.0     140603 807  0.0   0.0     140606 807  0.1+  0.1+
    140602 F51  0.0   0.0     140603 568  0.1-  0.0     140606 807  0.0   0.3-
    
    Ephemeris:
    2014 LN14                a,e,i = 2.15, 0.43, 5                   q = 1.2377
    Date    TT    R. A. (2000) Decl.     Delta      r     Elong.  Phase     V
    2014 05 07    15 01 16.6 -29 07 36   0.7196  1.7184   167.5     7.3    20.3
    ...
    2014 05 22    14 39 51.0 -28 53 34   0.6456  1.6364   161.1    11.5    20.1
    ...
    2014 05 30    14 28 56.3 -28 23 29   0.6235  1.5934   152.7    17.0    20.2
    ...
    2014 06 05    14 22 06.9 -27 54 32   0.6137  1.5617   146.0    21.3    20.2
    2014 06 06    14 21 07.9 -27 49 27   0.6126  1.5564   144.9    22.0    20.3
    2014 06 07    14 20 11.9 -27 44 19   0.6116  1.5512   143.8    22.7    20.3
    ...
    2014 06 13    14 15 42.5 -27 13 34   0.6082  1.5202   137.5    26.8    20.3
    ...
    2014 06 21    14 12 56.7 -26 36 13   0.6090  1.4801   129.5    32.0    20.4
    ...
    2014 07 06    14 18 28.3 -25 52 32   0.6213  1.4097   116.7    40.1    20.6
    
    A. U. Tomatic                (C) Copyright 2014 MPC           M.P.E.C. 2014-L30
    

    Read MPEC 2014-L29 Read MPEC 2014-L31


    MPEC number:

    Enter an MPEC number in one of the following forms:

    • 1997-B01 (the full form)
    • J97B01 (the packed version of the full form)
    • B01 (the abbreviated form)